#timestamp,LO_Frequency,Hit,StdDev 
1630699215.5,286047000.7,N
1630699235.3,286047000.8,N
1630699255.2,286046999.5,N
1630699275.0,286046997.9,N
1630699275.9,286046997.9,N
1630699295.8,286046995.8,N
1630699315.6,286046996.3,N
1630699335.4,286046994.3,N
1630699355.3,286046994.5,N
1630699375.1,286046994.7,N
1630699395.9,286046992.4,N
1630699415.7,286046991.8,N
1630699435.5,286046992.4,N
1630699455.4,286046990.9,N
1630699475.2,286046993.0,N
1630699495.0,286046992.2,N
1630699495.9,286046992.2,N
1630699515.8,286046990.7,N
1630699535.6,286046989.9,N
1630699555.5,286046988.3,N
1630699575.3,286046987.1,N
1630699595.1,286046987.7,N
1630699615.9,286046988.2,N
1630699635.7,286046987.6,N
1630699655.5,286046985.8,Y
1630699675.4,286046992.0,P
1630699695.2,286046991.9,P
1630699715.1,286046991.8,P
1630699716.0,286046991.8,Y
1630699735.8,286047002.4,P
1630699755.6,286047001.9,N
1630699775.5,286047001.6,N
1630699795.3,286047001.7,N
1630699815.1,286047000.0,N
1630699835.9,286047000.5,N
1630699855.7,286046999.2,N
1630699875.6,286046999.7,N
1630699895.4,286047000.2,N
1630699915.2,286047000.3,N
1630699935.1,286047000.9,N
1630699936.0,286047000.9,N
1630699955.8,286047000.7,N
1630699975.6,286047001.0,N
1630699995.5,286047000.7,N
1630700015.3,286046998.3,N
1630700035.2,286047000.6,N
1630700055.9,286047001.0,N
1630700075.7,286047000.6,N
1630700095.6,286046999.8,N
1630700115.4,286047000.4,N
1630700135.2,286047002.4,N
1630700155.1,286046998.1,N
1630700156.0,286046998.1,N
1630700175.8,286046998.4,N
1630700195.7,286047000.7,N
1630700215.5,286046998.5,N
1630700235.3,286047000.8,N
1630700255.2,286047000.4,N
1630700275.0,286047000.7,N
1630700275.9,286047000.7,N
1630700295.7,286046998.7,N
1630700315.6,286046998.2,N
1630700335.4,286047000.5,N
1630700355.3,286047000.7,N
1630700375.1,286047001.9,N
1630700376.0,286047001.9,N
1630700395.8,286047001.8,N
1630700415.7,286047004.4,Y
1630700435.5,286047001.6,P
1630700455.3,286047001.9,N
1630700475.2,286047001.8,N
1630700495.0,286047002.6,Y
1630700495.9,286047002.6,P
1630700515.8,286046999.2,N
1630700535.6,286046998.4,N
1630700555.4,286047001.2,N
1630700575.3,286046998.6,N
1630700595.1,286047000.8,N
1630700615.9,286046998.4,N
1630700635.7,286046998.2,N
1630700655.5,286047001.1,N
1630700675.4,286046998.1,N
1630700695.2,286047000.7,N
1630700715.0,286047000.5,N
1630700715.9,286047000.5,N
1630700735.8,286046998.4,N
1630700755.6,286046998.4,N
1630700775.5,286047000.9,N
1630700795.3,286047000.4,N
1630700815.1,286047002.8,N
1630700835.9,286047001.1,N
1630700855.7,286046999.2,N
1630700875.5,286046998.9,N
1630700895.4,286046998.4,N
1630700915.2,286046998.4,N
1630700935.0,286046998.6,N
1630700936.0,286046998.6,N
1630700955.8,286046999.0,N
1630700975.6,286046999.6,N
1630700995.5,286046999.1,N
1630701015.3,286046999.1,N
1630701035.1,286046998.3,N
1630701055.9,286046998.2,N
1630701075.7,286046998.2,N
1630701095.6,286046996.6,N
1630701115.4,286046999.5,N
1630701135.2,286046999.2,N
1630701155.1,286047001.1,N
1630701156.0,286047001.1,N
1630701175.8,286047000.3,N
1630701195.7,286047001.2,N
1630701215.5,286047001.2,N
1630701235.3,286047000.0,N
1630701255.2,286046998.4,N
1630701275.0,286046999.2,N
1630701275.9,286046999.2,N
1630701295.8,286046998.5,N
1630701315.6,286046999.2,N
1630701335.4,286046997.4,N
1630701355.3,286046999.3,N
1630701375.1,286046999.6,N
1630701395.9,286046997.6,N
1630701415.7,286046993.7,Y
1630701435.5,286046997.3,P
1630701455.4,286046997.4,N
1630701475.2,286046999.1,N
1630701495.0,286046998.7,N
1630701496.0,286046998.7,N
1630701515.8,286046996.7,Y
1630701535.6,286046998.7,P
1630701555.5,286047000.8,P
1630701575.3,286047000.3,N
1630701595.1,286046999.2,N
1630701615.9,286046998.5,N
1630701635.7,286046998.9,N
1630701655.6,286046996.6,Y
1630701675.4,286046997.0,P
1630701695.2,286046999.5,N
1630701715.1,286046997.7,N
1630701716.0,286046997.7,N
1630701735.8,286046998.9,N
1630701755.7,286047001.2,N
1630701775.5,286047000.9,N
1630701795.3,286047000.3,N
1630701815.2,286047002.1,N
1630701835.9,286047002.7,N
1630701855.7,286047002.1,N
1630701875.6,286047004.0,N
1630701895.4,286047002.2,N
1630701915.2,286047001.7,N
1630701935.1,286047002.4,N
1630701936.0,286047002.4,N
1630701955.8,286047000.6,N
1630701975.7,286046998.2,N
1630701995.5,286046998.7,N
1630702015.3,286046998.2,N
1630702035.2,286047002.7,N
1630702055.0,286047002.3,N
1630702055.9,286047002.3,N
1630702075.8,286047002.0,N
1630702095.6,286047002.8,N
1630702115.4,286046999.8,N
1630702135.3,286047000.2,N
1630702155.1,286047000.1,N
1630702175.8,286047002.8,N
1630702195.7,286047000.1,N
1630702215.5,286047002.3,N
1630702235.3,286047001.6,N
1630702255.2,286047001.6,N
1630702275.0,286047002.6,N
1630702275.9,286047002.6,N
1630702295.8,286047002.8,N
1630702315.6,286047000.1,N
1630702335.4,286047002.5,N
1630702355.3,286047000.6,N
1630702375.1,286046998.6,N
1630702395.8,286047000.0,N
1630702415.7,286047001.2,N
1630702435.5,286046998.7,N
1630702455.4,286046998.7,N
1630702475.2,286046996.8,N
1630702495.0,286046996.7,N
1630702495.9,286046996.7,N
1630702515.8,286046999.5,N
1630702535.6,286046997.0,N
1630702555.4,286046999.4,N
1630702575.3,286047000.6,N
1630702595.1,286046999.8,N
1630702615.9,286047000.2,N
1630702635.7,286047003.9,N
1630702655.5,286047004.4,N
1630702675.4,286047005.7,N
1630702695.2,286047004.1,N
1630702715.0,286047003.9,N
1630702716.0,286047003.9,N
1630702735.8,286047001.9,N
1630702755.6,286046999.7,N
1630702775.5,286047002.5,N
1630702795.3,286047000.2,N
